Weather in Dubrovichi

Russia / Ryazan Oblast     54°39′19″N   39°56′01″E
temp.,
°C
wind,
m/s
gust,
m/s
humid.,
%
clouds,
%
prec.,
mm/h
press.,
hPa
HPBL,
m
1 march, mon
mon100:00−10nne229582 0.0 102121
03:00−12n129642 0.0 102321
06:00−12nw129749 0.0 102421
09:00−9wsw119562 0.0 102542
12:00−4wsw249191 0.0 1024337
15:00−2wsw479293 0.1 1023536
18:00−2wsw4990100 0.1 1021563
21:00−1wsw51292100 0.1 1018616
2 march, tue
tue200:00+1w51293100 0.0 1015616
03:00+1w51293100 0.0 1013597
06:00+1w51294100 0.1 1010750
09:00+1wnw51298100 0.2 1009634
12:00+1wnw51095100 0.2 1007766
15:00+2nw498778 0.4 1008916
18:00−2wnw398983 0.1 1008255
21:00−1nw4108991 0.2 1009597
3 march, wed
wed300:00−2nw41194100 0.1 1009580
03:00−3nw51290100 0.3 1010794
06:00−5nw5128899 0.1 1012743
09:00−5nw61187100 0.1 1014788
12:00−2nnw6107275 0.0 10141052
15:00−1wnw598370 0.1 10141049
18:00−2wnw41094100 0.1 1013756
21:00−2wnw41193100 0.3 1014708
4 march, thu
thu400:00−2w4109199 0.1 1013543
03:00−3wsw5119198 0.1 1011589
06:00−2wsw61489100 0.0 1007589
09:00−1wsw71587100 0.0 1004748
12:00+1wsw71584100 0.0 10011179
15:00+1wsw71386100 0.1 10001180
18:000w71495100 0.1 997998
21:000w71493100 0.6 998915
5 march, fri
fri500:00−3wnw4118798 0.4 1001498
03:00−6nw389462 0.4 1005207
06:00−8wnw23960 0.0 100761
09:00−6nw24920 0.0 1009202
12:00−3nw23740 0.0 1011647
15:00−2wnw227313 0.0 1012843
18:00−5wsw229099 0.0 101330
21:00−7w009199 0.0 101421